Time,TemperatureF,DewpointF,PressureIn,WindDirection,WindDirectionDegrees,WindSpeedMPH,WindSpeedGustMPH,Humidity,HourlyPrecipIn,Conditions,Clouds,dailyrainin,SoftwareType,DateUTC
2013-01-24 00:00:00,15.6,11.9,30.16,South,176,0.0,0.0,85,0.00,,,0.00,VWS V14.01,2013-01-24 05:00:00,
2013-01-24 00:01:00,15.6,11.9,30.16,South,176,0.0,0.0,85,0.00,,,0.00,VWS V14.01,2013-01-24 05:01:00,
2013-01-24 00:03:00,15.7,12.0,30.16,South,176,0.0,0.0,85,0.00,,,0.00,VWS V14.01,2013-01-24 05:03:00,
2013-01-24 00:08:00,15.6,11.9,30.15,South,176,0.0,0.0,85,0.00,,,0.00,VWS V14.01,2013-01-24 05:08:00,
2013-01-24 00:13:00,15.7,12.0,30.15,South,176,0.0,0.0,85,0.00,,,0.00,VWS V14.01,2013-01-24 05:13:00,
2013-01-24 00:18:00,15.7,12.0,30.16,South,176,0.0,0.0,85,0.00,,,0.00,VWS V14.01,2013-01-24 05:18:00,
2013-01-24 00:23:00,15.7,12.0,30.15,South,176,0.0,0.0,85,0.00,,,0.00,VWS V14.01,2013-01-24 05:23:00,
2013-01-24 00:28:00,15.7,12.0,30.15,South,176,0.0,0.0,85,0.00,,,0.00,VWS V14.01,2013-01-24 05:28:00,
2013-01-24 00:33:00,15.7,12.0,30.15,South,176,0.0,0.0,85,0.00,,,0.00,VWS V14.01,2013-01-24 05:33:00,
2013-01-24 00:39:00,15.7,12.0,30.15,South,176,0.0,0.0,85,0.00,,,0.00,VWS V14.01,2013-01-24 05:39:00,
2013-01-24 00:43:00,15.7,12.0,30.14,South,176,0.0,0.0,85,0.00,,,0.00,VWS V14.01,2013-01-24 05:43:00,
2013-01-24 00:48:00,15.8,12.4,30.14,South,176,0.0,0.0,86,0.00,,,0.00,VWS V14.01,2013-01-24 05:48:00,
2013-01-24 00:53:00,15.8,12.4,30.14,South,176,0.0,0.0,86,0.00,,,0.00,VWS V14.01,2013-01-24 05:53:00,
2013-01-24 00:58:00,15.8,12.4,30.14,South,176,0.0,0.0,86,0.00,,,0.00,VWS V14.01,2013-01-24 05:58:00,
2013-01-24 01:04:00,15.8,12.4,30.14,South,176,0.0,0.0,86,0.00,,,0.00,VWS V14.01,2013-01-24 06:04:00,
2013-01-24 01:09:00,15.8,12.4,30.14,South,176,0.0,0.0,86,0.00,,,0.00,VWS V14.01,2013-01-24 06:09:00,
2013-01-24 01:14:00,15.8,12.4,30.14,South,176,0.0,0.0,86,0.00,,,0.00,VWS V14.01,2013-01-24 06:14:00,
2013-01-24 01:19:00,15.8,12.4,30.14,South,176,0.0,0.0,86,0.00,,,0.00,VWS V14.01,2013-01-24 06:19:00,
2013-01-24 01:24:00,15.8,12.4,30.14,South,176,0.0,0.0,86,0.00,,,0.00,VWS V14.01,2013-01-24 06:24:00,
2013-01-24 01:29:00,15.8,12.4,30.14,South,176,0.0,0.0,86,0.00,,,0.00,VWS V14.01,2013-01-24 06:29:00,
2013-01-24 01:34:00,15.8,12.4,30.14,South,176,0.0,1.0,86,0.00,,,0.00,VWS V14.01,2013-01-24 06:34:00,
2013-01-24 01:39:00,15.8,12.4,30.15,South,176,0.0,1.0,86,0.00,,,0.00,VWS V14.01,2013-01-24 06:39:00,
2013-01-24 01:44:00,15.8,12.4,30.15,South,176,0.0,1.0,86,0.00,,,0.00,VWS V14.01,2013-01-24 06:44:00,
2013-01-24 01:49:00,15.8,12.4,30.15,South,176,0.0,1.0,86,0.00,,,0.00,VWS V14.01,2013-01-24 06:49:00,
2013-01-24 01:54:00,15.8,12.4,30.15,South,176,0.0,1.0,86,0.00,,,0.00,VWS V14.01,2013-01-24 06:54:00,
2013-01-24 01:59:00,15.7,12.3,30.15,South,176,0.0,1.0,86,0.00,,,0.00,VWS V14.01,2013-01-24 06:59:00,
2013-01-24 02:04:00,15.7,12.3,30.15,South,176,0.0,0.0,86,0.00,,,0.00,VWS V14.01,2013-01-24 07:04:00,
2013-01-24 02:09:00,15.7,12.3,30.15,South,176,0.0,0.0,86,0.00,,,0.00,VWS V14.01,2013-01-24 07:09:00,
2013-01-24 02:14:00,15.7,12.3,30.15,South,176,0.0,0.0,86,0.00,,,0.00,VWS V14.01,2013-01-24 07:14:00,
2013-01-24 02:19:00,15.8,12.4,30.15,South,176,0.0,0.0,86,0.00,,,0.00,VWS V14.01,2013-01-24 07:19:00,
2013-01-24 02:24:00,15.7,12.3,30.16,South,176,0.0,0.0,86,0.00,,,0.00,VWS V14.01,2013-01-24 07:24:00,
2013-01-24 02:29:00,15.7,12.3,30.16,South,176,0.0,0.0,86,0.00,,,0.00,VWS V14.01,2013-01-24 07:29:00,
2013-01-24 02:34:00,15.8,12.4,30.16,South,176,0.0,0.0,86,0.00,,,0.00,VWS V14.01,2013-01-24 07:34:00,
2013-01-24 02:40:00,15.9,12.5,30.17,South,176,0.0,1.0,86,0.00,,,0.00,VWS V14.01,2013-01-24 07:40:00,
2013-01-24 02:45:00,15.9,12.7,30.17,South,176,0.0,1.0,87,0.00,,,0.00,VWS V14.01,2013-01-24 07:45:00,
2013-01-24 02:50:00,15.9,12.7,30.17,South,176,0.0,1.0,87,0.00,,,0.00,VWS V14.01,2013-01-24 07:50:00,
2013-01-24 02:55:00,15.9,12.7,30.17,South,176,0.0,1.0,87,0.00,,,0.00,VWS V14.01,2013-01-24 07:55:00,
2013-01-24 03:00:00,15.9,12.7,30.17,South,176,1.0,1.0,87,0.00,,,0.00,VWS V14.01,2013-01-24 08:00:00,
2013-01-24 03:05:00,15.9,12.7,30.17,South,176,0.0,1.0,87,0.00,,,0.00,VWS V14.01,2013-01-24 08:05:00,
2013-01-24 03:10:00,15.9,12.7,30.17,South,176,0.0,1.0,87,0.00,,,0.00,VWS V14.01,2013-01-24 08:10:00,
2013-01-24 03:15:00,15.9,12.7,30.18,South,176,0.0,1.0,87,0.00,,,0.00,VWS V14.01,2013-01-24 08:15:00,
2013-01-24 03:20:00,15.8,12.6,30.17,South,176,0.0,2.0,87,0.00,,,0.00,VWS V14.01,2013-01-24 08:20:00,
2013-01-24 03:25:00,15.8,12.4,30.18,South,176,0.0,2.0,86,0.00,,,0.00,VWS V14.01,2013-01-24 08:25:00,
2013-01-24 03:30:00,15.7,12.3,30.18,WSW,246,0.0,1.0,86,0.00,,,0.00,VWS V14.01,2013-01-24 08:30:00,
2013-01-24 03:36:00,15.7,12.3,30.18,WNW,282,0.0,2.0,86,0.00,,,0.00,VWS V14.01,2013-01-24 08:36:00,
2013-01-24 03:41:00,15.6,12.2,30.19,WNW,282,0.0,2.0,86,0.00,,,0.00,VWS V14.01,2013-01-24 08:41:00,
2013-01-24 03:46:00,15.6,12.2,30.19,WNW,282,1.0,2.0,86,0.00,,,0.00,VWS V14.01,2013-01-24 08:46:00,
2013-01-24 03:51:00,15.5,12.1,30.19,WNW,282,0.0,2.0,86,0.00,,,0.00,VWS V14.01,2013-01-24 08:51:00,
2013-01-24 03:56:00,15.5,12.1,30.19,WNW,282,0.0,2.0,86,0.00,,,0.00,VWS V14.01,2013-01-24 08:56:00,
2013-01-24 04:01:00,15.4,12.0,30.20,WNW,282,1.0,2.0,86,0.00,,,0.00,VWS V14.01,2013-01-24 09:01:00,
2013-01-24 04:06:00,15.3,11.9,30.20,WNW,282,0.0,2.0,86,0.00,,,0.00,VWS V14.01,2013-01-24 09:06:00,
2013-01-24 04:11:00,15.2,11.8,30.20,WNW,284,3.0,3.0,86,0.00,,,0.00,VWS V14.01,2013-01-24 09:11:00,
2013-01-24 04:16:00,15.2,11.8,30.20,WNW,290,0.0,3.0,86,0.00,,,0.00,VWS V14.01,2013-01-24 09:16:00,
2013-01-24 04:21:00,15.2,11.8,30.20,WNW,284,3.0,3.0,86,0.00,,,0.00,VWS V14.01,2013-01-24 09:21:00,
2013-01-24 04:26:00,15.2,11.8,30.21,WNW,288,0.0,4.0,86,0.00,,,0.00,VWS V14.01,2013-01-24 09:26:00,
2013-01-24 04:31:00,15.1,11.4,30.21,WNW,296,1.0,3.0,85,0.00,,,0.00,VWS V14.01,2013-01-24 09:31:00,
2013-01-24 04:36:00,15.1,11.4,30.22,West,278,0.0,3.0,85,0.00,,,0.00,VWS V14.01,2013-01-24 09:36:00,
2013-01-24 04:41:00,15.1,11.4,30.22,WNW,284,3.0,4.0,85,0.00,,,0.00,VWS V14.01,2013-01-24 09:41:00,
2013-01-24 04:47:00,15.2,11.5,30.22,WNW,292,2.0,5.0,85,0.00,,,0.00,VWS V14.01,2013-01-24 09:47:00,
2013-01-24 04:52:00,15.1,11.4,30.22,WNW,298,2.0,5.0,85,0.00,,,0.00,VWS V14.01,2013-01-24 09:52:00,
2013-01-24 04:57:00,15.1,11.4,30.22,NW,310,4.0,5.0,85,0.00,,,0.00,VWS V14.01,2013-01-24 09:57:00,
2013-01-24 05:02:00,15.1,11.1,30.23,WNW,298,2.0,4.0,84,0.00,,,0.00,VWS V14.01,2013-01-24 10:02:00,
2013-01-24 05:07:00,15.1,11.1,30.24,WNW,293,3.0,4.0,84,0.00,,,0.00,VWS V14.01,2013-01-24 10:07:00,
2013-01-24 05:12:00,15.2,11.2,30.24,NW,305,3.0,5.0,84,0.00,,,0.00,VWS V14.01,2013-01-24 10:12:00,
2013-01-24 05:17:00,15.2,11.2,30.24,WNW,282,2.0,5.0,84,0.00,,,0.00,VWS V14.01,2013-01-24 10:17:00,
2013-01-24 05:22:00,15.3,11.6,30.24,WNW,288,2.0,5.0,85,0.00,,,0.00,VWS V14.01,2013-01-24 10:22:00,
2013-01-24 05:27:00,15.3,11.6,30.25,WNW,298,4.0,5.0,85,0.00,,,0.00,VWS V14.01,2013-01-24 10:27:00,
2013-01-24 05:32:00,15.3,11.6,30.25,WNW,290,3.0,4.0,85,0.00,,,0.00,VWS V14.01,2013-01-24 10:32:00,
2013-01-24 05:37:00,15.3,11.6,30.25,WNW,300,4.0,6.0,85,0.00,,,0.00,VWS V14.01,2013-01-24 10:37:00,
2013-01-24 05:42:00,15.3,11.6,30.26,WNW,287,2.0,7.0,85,0.00,,,0.00,VWS V14.01,2013-01-24 10:42:00,
2013-01-24 05:47:00,15.3,11.6,30.27,WNW,292,3.0,7.0,85,0.00,,,0.00,VWS V14.01,2013-01-24 10:47:00,
2013-01-24 05:52:00,15.3,11.6,30.27,NW,310,2.0,7.0,85,0.00,,,0.00,VWS V14.01,2013-01-24 10:52:00,
2013-01-24 05:57:00,15.2,11.5,30.28,West,281,0.0,7.0,85,0.00,,,0.00,VWS V14.01,2013-01-24 10:57:00,
2013-01-24 06:02:00,15.2,11.5,30.28,WNW,287,5.0,5.0,85,0.00,,,0.00,VWS V14.01,2013-01-24 11:02:00,
2013-01-24 06:07:00,15.2,11.5,30.28,WNW,283,4.0,5.0,85,0.00,,,0.00,VWS V14.01,2013-01-24 11:07:00,
2013-01-24 06:13:00,15.2,11.5,30.29,NW,308,2.0,6.0,85,0.00,,,0.00,VWS V14.01,2013-01-24 11:13:00,
2013-01-24 06:18:00,15.1,11.1,30.29,WNW,292,4.0,6.0,84,0.00,,,0.00,VWS V14.01,2013-01-24 11:18:00,
2013-01-24 06:23:00,15.1,11.1,30.30,NW,312,5.0,7.0,84,0.00,,,0.00,VWS V14.01,2013-01-24 11:23:00,
2013-01-24 06:28:00,15.0,10.8,30.30,West,277,2.0,7.0,83,0.00,,,0.00,VWS V14.01,2013-01-24 11:28:00,
2013-01-24 06:33:00,14.9,10.7,30.31,NW,309,3.0,6.0,83,0.00,,,0.00,VWS V14.01,2013-01-24 11:33:00,
2013-01-24 06:38:00,14.8,10.6,30.31,WNW,290,5.0,6.0,83,0.00,,,0.00,VWS V14.01,2013-01-24 11:38:00,
2013-01-24 06:43:00,14.6,10.4,30.31,WNW,295,2.0,6.0,83,0.00,,,0.00,VWS V14.01,2013-01-24 11:43:00,
2013-01-24 06:48:00,14.5,10.3,30.32,WNW,302,2.0,6.0,83,0.00,,,0.00,VWS V14.01,2013-01-24 11:48:00,
2013-01-24 06:53:00,14.5,10.0,30.32,WNW,293,0.0,6.0,82,0.00,,,0.00,VWS V14.01,2013-01-24 11:53:00,
2013-01-24 06:58:00,14.3,9.8,30.33,WNW,294,1.0,6.0,82,0.00,,,0.00,VWS V14.01,2013-01-24 11:58:00,
2013-01-24 07:03:00,14.2,9.7,30.33,WNW,298,2.0,4.0,82,0.00,,,0.00,VWS V14.01,2013-01-24 12:03:00,
2013-01-24 07:08:00,14.3,9.8,30.34,WNW,292,1.0,5.0,82,0.00,,,0.00,VWS V14.01,2013-01-24 12:08:00,
2013-01-24 07:13:00,14.1,9.6,30.34,WNW,296,2.0,5.0,82,0.00,,,0.00,VWS V14.01,2013-01-24 12:13:00,
2013-01-24 07:18:00,14.1,9.6,30.34,WNW,291,2.0,5.0,82,0.00,,,0.00,VWS V14.01,2013-01-24 12:18:00,
2013-01-24 07:23:00,14.0,9.5,30.35,WNW,297,1.0,5.0,82,0.00,,,0.00,VWS V14.01,2013-01-24 12:23:00,
2013-01-24 07:28:00,14.0,9.5,30.35,WNW,285,1.0,5.0,82,0.00,,,0.00,VWS V14.01,2013-01-24 12:28:00,
2013-01-24 07:33:00,14.0,9.5,30.36,WNW,288,1.0,6.0,82,0.00,,,0.00,VWS V14.01,2013-01-24 12:33:00,
2013-01-24 07:38:00,13.8,9.3,30.36,WNW,284,3.0,6.0,82,0.00,,,0.00,VWS V14.01,2013-01-24 12:38:00,
2013-01-24 07:43:00,13.7,9.2,30.36,WNW,296,0.0,6.0,82,0.00,,,0.00,VWS V14.01,2013-01-24 12:43:00,
2013-01-24 07:48:00,13.6,9.1,30.36,WNW,287,2.0,6.0,82,0.00,,,0.00,VWS V14.01,2013-01-24 12:48:00,
2013-01-24 07:54:00,13.5,9.0,30.37,WNW,302,0.0,6.0,82,0.00,,,0.00,VWS V14.01,2013-01-24 12:54:00,
2013-01-24 07:59:00,13.4,8.9,30.38,WNW,296,1.0,6.0,82,0.00,,,0.00,VWS V14.01,2013-01-24 12:59:00,
2013-01-24 08:04:00,13.4,8.9,30.38,WNW,296,3.0,5.0,82,0.00,,,0.00,VWS V14.01,2013-01-24 13:04:00,
2013-01-24 08:09:00,13.5,9.3,30.39,WNW,296,2.0,6.0,83,0.00,,,0.00,VWS V14.01,2013-01-24 13:09:00,
2013-01-24 08:14:00,13.5,9.0,30.40,NW,306,3.0,6.0,82,0.00,,,0.00,VWS V14.01,2013-01-24 13:14:00,
2013-01-24 08:19:00,13.7,9.2,30.40,WNW,296,5.0,9.0,82,0.00,,,0.00,VWS V14.01,2013-01-24 13:19:00,
2013-01-24 08:24:00,13.9,9.4,30.41,NW,306,3.0,9.0,82,0.00,,,0.00,VWS V14.01,2013-01-24 13:24:00,
2013-01-24 08:29:00,13.9,9.4,30.41,WNW,296,2.0,9.0,82,0.00,,,0.00,VWS V14.01,2013-01-24 13:29:00,
2013-01-24 08:34:00,13.9,9.4,30.41,NW,315,2.0,5.0,82,0.00,,,0.00,VWS V14.01,2013-01-24 13:34:00,
2013-01-24 08:39:00,14.0,9.5,30.42,NW,308,2.0,7.0,82,0.00,,,0.00,VWS V14.01,2013-01-24 13:39:00,
2013-01-24 08:45:00,14.0,9.5,30.42,NW,324,6.0,7.0,82,0.00,,,0.00,VWS V14.01,2013-01-24 13:45:00,
2013-01-24 08:50:00,14.0,9.5,30.42,West,275,5.0,7.0,82,0.00,,,0.00,VWS V14.01,2013-01-24 13:50:00,
2013-01-24 08:55:00,14.2,9.7,30.43,WNW,302,3.0,7.0,82,0.00,,,0.00,VWS V14.01,2013-01-24 13:55:00,
2013-01-24 09:00:00,14.4,9.9,30.43,West,279,3.0,7.0,82,0.00,,,0.00,VWS V14.01,2013-01-24 14:00:00,
2013-01-24 09:05:00,14.6,9.8,30.44,WNW,292,2.0,12.0,81,0.00,,,0.00,VWS V14.01,2013-01-24 14:05:00,
2013-01-24 09:10:00,14.8,10.0,30.45,West,281,4.0,12.0,81,0.00,,,0.00,VWS V14.01,2013-01-24 14:10:00,
2013-01-24 09:15:00,15.0,10.2,30.44,NW,304,5.0,12.0,81,0.00,,,0.00,VWS V14.01,2013-01-24 14:15:00,
2013-01-24 09:20:00,15.2,10.4,30.44,NW,323,3.0,12.0,81,0.00,,,0.00,VWS V14.01,2013-01-24 14:20:00,
2013-01-24 09:25:00,15.4,10.4,30.45,NW,313,5.0,12.0,80,0.00,,,0.00,VWS V14.01,2013-01-24 14:25:00,
2013-01-24 09:30:00,15.6,10.5,30.46,NW,314,4.0,4.0,80,0.00,,,0.00,VWS V14.01,2013-01-24 14:30:00,
2013-01-24 09:35:00,15.9,10.6,30.45,NNW,329,2.0,8.0,79,0.00,,,0.00,VWS V14.01,2013-01-24 14:35:00,
2013-01-24 09:40:00,16.1,10.8,30.46,WNW,302,6.0,8.0,79,0.00,,,0.00,VWS V14.01,2013-01-24 14:40:00,
2013-01-24 09:45:00,16.4,10.8,30.46,WNW,292,12.0,12.0,78,0.00,,,0.00,VWS V14.01,2013-01-24 14:45:00,
2013-01-24 09:50:00,16.6,10.7,30.47,NNW,327,8.0,13.0,77,0.00,,,0.00,VWS V14.01,2013-01-24 14:50:00,
2013-01-24 09:55:00,16.7,10.5,30.47,NW,315,3.0,13.0,76,0.00,,,0.00,VWS V14.01,2013-01-24 14:55:00,
2013-01-24 10:01:00,17.1,10.9,30.47,WNW,298,6.0,6.0,76,0.00,,,0.00,VWS V14.01,2013-01-24 15:01:00,
2013-01-24 10:06:00,17.1,10.6,30.48,NNW,335,4.0,9.0,75,0.00,,,0.00,VWS V14.01,2013-01-24 15:06:00,
2013-01-24 10:11:00,16.9,10.1,30.48,NW,317,4.0,15.0,74,0.00,,,0.00,VWS V14.01,2013-01-24 15:11:00,
2013-01-24 10:16:00,17.0,9.6,30.48,NNE,17,3.0,15.0,72,0.00,,,0.00,VWS V14.01,2013-01-24 15:16:00,
2013-01-24 10:21:00,17.2,10.1,30.49,NNW,338,6.0,15.0,73,0.00,,,0.00,VWS V14.01,2013-01-24 15:21:00,
2013-01-24 10:26:00,17.4,9.9,30.49,NW,323,4.0,15.0,72,0.00,,,0.00,VWS V14.01,2013-01-24 15:26:00,
2013-01-24 10:31:00,17.8,10.3,30.49,WNW,294,5.0,8.0,72,0.00,,,0.00,VWS V14.01,2013-01-24 15:31:00,
2013-01-24 10:36:00,17.6,10.1,30.50,NW,315,4.0,10.0,72,0.00,,,0.00,VWS V14.01,2013-01-24 15:36:00,
2013-01-24 10:41:00,17.7,9.9,30.50,NNW,338,7.0,10.0,71,0.00,,,0.00,VWS V14.01,2013-01-24 15:41:00,
2013-01-24 10:46:00,18.0,9.9,30.50,NW,306,10.0,14.0,70,0.00,,,0.00,VWS V14.01,2013-01-24 15:46:00,
2013-01-24 10:51:00,18.1,9.3,30.51,NW,305,6.0,14.0,68,0.00,,,0.00,VWS V14.01,2013-01-24 15:51:00,
2013-01-24 10:56:00,18.6,10.5,30.51,West,277,4.0,14.0,70,0.00,,,0.00,VWS V14.01,2013-01-24 15:56:00,
2013-01-24 11:02:00,18.7,9.9,30.52,WNW,300,10.0,17.0,68,0.00,,,0.00,VWS V14.01,2013-01-24 16:02:00,
2013-01-24 11:07:00,18.3,9.2,30.52,WNW,293,3.0,17.0,67,0.00,,,0.00,VWS V14.01,2013-01-24 16:07:00,
2013-01-24 11:12:00,18.6,10.1,30.52,WNW,282,7.0,17.0,69,0.00,,,0.00,VWS V14.01,2013-01-24 16:12:00,
2013-01-24 11:17:00,18.6,8.8,30.53,West,280,4.0,17.0,65,0.00,,,0.00,VWS V14.01,2013-01-24 16:17:00,
2013-01-24 11:22:00,18.9,8.4,30.53,NW,326,8.0,17.0,63,0.00,,,0.00,VWS V14.01,2013-01-24 16:22:00,
2013-01-24 11:27:00,19.0,8.8,30.53,NNW,340,2.0,17.0,64,0.00,,,0.00,VWS V14.01,2013-01-24 16:27:00,
2013-01-24 11:32:00,19.2,9.7,30.53,NW,307,9.0,9.0,66,0.00,,,0.00,VWS V14.01,2013-01-24 16:32:00,
2013-01-24 11:37:00,18.8,7.2,30.53,NNW,327,12.0,16.0,60,0.00,,,0.00,VWS V14.01,2013-01-24 16:37:00,
2013-01-24 11:42:00,18.6,7.0,30.54,NW,316,7.0,16.0,60,0.00,,,0.00,VWS V14.01,2013-01-24 16:42:00,
2013-01-24 11:47:00,19.1,8.2,30.54,NW,325,8.0,16.0,62,0.00,,,0.00,VWS V14.01,2013-01-24 16:47:00,
2013-01-24 11:53:00,19.8,8.2,30.54,NW,304,9.0,16.0,60,0.00,,,0.00,VWS V14.01,2013-01-24 16:53:00,
2013-01-24 11:57:00,19.9,8.3,30.54,WNW,295,8.0,16.0,60,0.00,,,0.00,VWS V14.01,2013-01-24 16:57:00,
2013-01-24 12:03:00,19.3,6.6,30.54,NW,323,6.0,15.0,57,0.00,,,0.00,VWS V14.01,2013-01-24 17:03:00,
2013-01-24 12:08:00,19.2,7.6,30.54,NW,307,5.0,15.0,60,0.00,,,0.00,VWS V14.01,2013-01-24 17:08:00,
2013-01-24 12:13:00,19.5,7.5,30.54,NW,306,7.0,15.0,59,0.00,,,0.00,VWS V14.01,2013-01-24 17:13:00,
2013-01-24 12:18:00,19.5,7.9,30.54,NW,317,6.0,15.0,60,0.00,,,0.00,VWS V14.01,2013-01-24 17:18:00,
2013-01-24 12:23:00,20.0,8.7,30.54,WNW,285,11.0,15.0,61,0.00,,,0.00,VWS V14.01,2013-01-24 17:23:00,
2013-01-24 12:28:00,20.1,8.1,30.54,WNW,303,10.0,17.0,59,0.00,,,0.00,VWS V14.01,2013-01-24 17:28:00,
2013-01-24 12:33:00,20.5,8.5,30.54,NW,309,10.0,15.0,59,0.00,,,0.00,VWS V14.01,2013-01-24 17:33:00,
2013-01-24 12:38:00,20.4,8.4,30.54,WNW,288,5.0,15.0,59,0.00,,,0.00,VWS V14.01,2013-01-24 17:38:00,
2013-01-24 12:43:00,19.8,7.8,30.54,NW,304,4.0,15.0,59,0.00,,,0.00,VWS V14.01,2013-01-24 17:43:00,
2013-01-24 12:48:00,20.0,8.7,30.53,WNW,294,4.0,15.0,61,0.00,,,0.00,VWS V14.01,2013-01-24 17:48:00,
2013-01-24 12:53:00,19.8,8.9,30.54,WNW,302,5.0,15.0,62,0.00,,,0.00,VWS V14.01,2013-01-24 17:53:00,
2013-01-24 12:58:00,19.8,8.5,30.53,WNW,288,7.0,15.0,61,0.00,,,0.00,VWS V14.01,2013-01-24 17:58:00,
2013-01-24 13:03:00,20.2,8.2,30.53,NW,315,10.0,11.0,59,0.00,,,0.00,VWS V14.01,2013-01-24 18:03:00,
2013-01-24 13:08:00,20.6,8.6,30.53,WNW,299,10.0,14.0,59,0.00,,,0.00,VWS V14.01,2013-01-24 18:08:00,
2013-01-24 13:13:00,20.6,8.9,30.53,NW,310,9.0,14.0,60,0.00,,,0.00,VWS V14.01,2013-01-24 18:13:00,
2013-01-24 13:18:00,20.8,8.4,30.53,WNW,284,7.0,14.0,58,0.00,,,0.00,VWS V14.01,2013-01-24 18:18:00,
2013-01-24 13:24:00,20.7,7.9,30.53,WNW,283,7.0,14.0,57,0.00,,,0.00,VWS V14.01,2013-01-24 18:24:00,
2013-01-24 13:29:00,21.0,9.7,30.53,SW,225,4.0,14.0,61,0.00,,,0.00,VWS V14.01,2013-01-24 18:29:00,
2013-01-24 13:34:00,20.7,8.6,30.53,West,267,6.0,12.0,59,0.00,,,0.00,VWS V14.01,2013-01-24 18:34:00,
2013-01-24 13:39:00,20.4,9.5,30.53,WNW,294,5.0,12.0,62,0.00,,,0.00,VWS V14.01,2013-01-24 18:39:00,
2013-01-24 13:44:00,20.7,9.4,30.52,NW,304,7.0,12.0,61,0.00,,,0.00,VWS V14.01,2013-01-24 18:44:00,
2013-01-24 13:49:00,21.5,10.1,30.52,NW,313,3.0,12.0,61,0.00,,,0.00,VWS V14.01,2013-01-24 18:49:00,
2013-01-24 13:54:00,21.6,9.1,30.52,NW,311,7.0,12.0,58,0.00,,,0.00,VWS V14.01,2013-01-24 18:54:00,
2013-01-24 13:59:00,21.5,9.4,30.52,WNW,291,8.0,15.0,59,0.00,,,0.00,VWS V14.01,2013-01-24 18:59:00,
2013-01-24 14:04:00,21.7,10.3,30.53,West,279,10.0,11.0,61,0.00,,,0.00,VWS V14.01,2013-01-24 19:04:00,
2013-01-24 14:09:00,21.6,9.1,30.53,WSW,252,5.0,16.0,58,0.00,,,0.00,VWS V14.01,2013-01-24 19:09:00,
2013-01-24 14:14:00,21.7,10.3,30.53,WSW,257,4.0,16.0,61,0.00,,,0.00,VWS V14.01,2013-01-24 19:14:00,
2013-01-24 14:19:00,21.8,10.1,30.52,NW,304,7.0,16.0,60,0.00,,,0.00,VWS V14.01,2013-01-24 19:19:00,
2013-01-24 14:24:00,21.8,9.3,30.53,WNW,296,10.0,16.0,58,0.00,,,0.00,VWS V14.01,2013-01-24 19:24:00,
2013-01-24 14:30:00,21.8,10.1,30.53,NW,304,5.0,16.0,60,0.00,,,0.00,VWS V14.01,2013-01-24 19:30:00,
2013-01-24 14:35:00,22.1,9.6,30.53,West,276,5.0,10.0,58,0.00,,,0.00,VWS V14.01,2013-01-24 19:35:00,
2013-01-24 14:40:00,21.6,8.7,30.53,NW,311,10.0,15.0,57,0.00,,,0.00,VWS V14.01,2013-01-24 19:40:00,
2013-01-24 14:45:00,20.8,10.2,30.54,NW,311,10.0,15.0,63,0.00,,,0.00,VWS V14.01,2013-01-24 19:45:00,
2013-01-24 14:50:00,20.2,10.0,30.54,NW,314,9.0,16.0,64,0.00,,,0.00,VWS V14.01,2013-01-24 19:50:00,
2013-01-24 14:55:00,19.7,9.5,30.54,NW,307,5.0,16.0,64,0.00,,,0.00,VWS V14.01,2013-01-24 19:55:00,
2013-01-24 15:00:00,19.7,9.5,30.55,WNW,290,9.0,9.0,64,0.00,,,0.00,VWS V14.01,2013-01-24 20:00:00,
2013-01-24 15:05:00,19.6,10.1,30.55,NNW,327,4.0,9.0,66,0.00,,,0.00,VWS V14.01,2013-01-24 20:05:00,
2013-01-24 15:10:00,19.8,10.6,30.55,North,349,5.0,10.0,67,0.00,,,0.00,VWS V14.01,2013-01-24 20:10:00,
2013-01-24 15:15:00,20.2,10.3,30.55,NW,321,4.0,11.0,65,0.00,,,0.00,VWS V14.01,2013-01-24 20:15:00,
2013-01-24 15:21:00,20.3,10.1,30.55,NW,312,4.0,11.0,64,0.00,,,0.00,VWS V14.01,2013-01-24 20:21:00,
2013-01-24 15:26:00,20.4,9.8,30.55,NW,325,7.0,11.0,63,0.00,,,0.00,VWS V14.01,2013-01-24 20:26:00,
2013-01-24 15:31:00,20.4,9.8,30.55,NW,313,7.0,10.0,63,0.00,,,0.00,VWS V14.01,2013-01-24 20:31:00,
2013-01-24 15:36:00,20.2,11.4,30.56,NNW,344,6.0,14.0,68,0.00,,,0.00,VWS V14.01,2013-01-24 20:36:00,
2013-01-24 15:41:00,19.5,11.6,30.56,NNW,342,5.0,14.0,71,0.00,,,0.00,VWS V14.01,2013-01-24 20:41:00,
2013-01-24 15:46:00,19.1,12.2,30.56,NNE,28,0.0,14.0,74,0.00,,,0.00,VWS V14.01,2013-01-24 20:46:00,
2013-01-24 15:51:00,19.0,12.4,30.56,NW,325,2.0,14.0,75,0.00,,,0.00,VWS V14.01,2013-01-24 20:51:00,
2013-01-24 15:56:00,18.7,11.8,30.56,NNW,333,2.0,14.0,74,0.00,,,0.00,VWS V14.01,2013-01-24 20:56:00,
2013-01-24 16:01:00,18.5,11.3,30.56,NNW,329,2.0,6.0,73,0.00,,,0.00,VWS V14.01,2013-01-24 21:01:00,
2013-01-24 16:06:00,18.5,10.7,30.56,NNW,330,3.0,8.0,71,0.00,,,0.00,VWS V14.01,2013-01-24 21:06:00,
2013-01-24 16:11:00,19.0,10.2,30.56,North,360,3.0,8.0,68,0.00,,,0.00,VWS V14.01,2013-01-24 21:11:00,
2013-01-24 16:17:00,19.5,9.7,30.56,NW,317,2.0,12.0,65,0.00,,,0.00,VWS V14.01,2013-01-24 21:17:00,
2013-01-24 16:22:00,19.8,9.3,30.57,NNW,340,4.0,12.0,63,0.00,,,0.00,VWS V14.01,2013-01-24 21:22:00,
2013-01-24 16:27:00,19.7,8.4,30.57,WNW,296,9.0,14.0,61,0.00,,,0.00,VWS V14.01,2013-01-24 21:27:00,
2013-01-24 16:32:00,19.4,8.2,30.57,NW,320,5.0,11.0,61,0.00,,,0.00,VWS V14.01,2013-01-24 21:32:00,
2013-01-24 16:37:00,19.3,7.7,30.57,NNW,344,4.0,11.0,60,0.00,,,0.00,VWS V14.01,2013-01-24 21:37:00,
2013-01-24 16:42:00,19.2,7.2,30.57,NW,324,0.0,11.0,59,0.00,,,0.00,VWS V14.01,2013-01-24 21:42:00,
2013-01-24 16:47:00,19.1,6.4,30.57,NNW,347,2.0,11.0,57,0.00,,,0.00,VWS V14.01,2013-01-24 21:47:00,
2013-01-24 16:52:00,19.1,6.0,30.57,NNW,336,0.0,11.0,56,0.00,,,0.00,VWS V14.01,2013-01-24 21:52:00,
2013-01-24 16:57:00,19.1,5.2,30.57,NW,325,2.0,11.0,54,0.00,,,0.00,VWS V14.01,2013-01-24 21:57:00,
2013-01-24 17:02:00,19.1,4.8,30.57,NW,325,0.0,0.0,53,0.00,,,0.00,VWS V14.01,2013-01-24 22:02:00,
2013-01-24 17:07:00,19.0,4.7,30.58,NW,325,0.0,0.0,53,0.00,,,0.00,VWS V14.01,2013-01-24 22:07:00,
2013-01-24 17:12:00,18.9,4.6,30.58,NW,325,0.0,0.0,53,0.00,,,0.00,VWS V14.01,2013-01-24 22:12:00,
2013-01-24 17:17:00,18.7,5.2,30.58,NW,325,0.0,0.0,55,0.00,,,0.00,VWS V14.01,2013-01-24 22:17:00,
2013-01-24 17:22:00,18.6,5.5,30.59,NW,325,0.0,0.0,56,0.00,,,0.00,VWS V14.01,2013-01-24 22:22:00,
2013-01-24 17:27:00,18.4,5.7,30.58,NW,325,0.0,0.0,57,0.00,,,0.00,VWS V14.01,2013-01-24 22:27:00,
2013-01-24 17:32:00,18.2,5.2,30.58,NW,323,0.0,3.0,56,0.00,,,0.00,VWS V14.01,2013-01-24 22:32:00,
2013-01-24 17:37:00,18.0,5.0,30.58,NW,323,2.0,3.0,56,0.00,,,0.00,VWS V14.01,2013-01-24 22:37:00,
2013-01-24 17:42:00,17.9,4.5,30.59,NW,322,1.0,3.0,55,0.00,,,0.00,VWS V14.01,2013-01-24 22:42:00,
2013-01-24 17:47:00,17.9,4.1,30.59,NW,316,2.0,4.0,54,0.00,,,0.00,VWS V14.01,2013-01-24 22:47:00,
2013-01-24 17:52:00,18.1,3.9,30.59,NW,305,0.0,4.0,53,0.00,,,0.00,VWS V14.01,2013-01-24 22:52:00,
2013-01-24 17:57:00,18.1,3.5,30.59,WNW,301,0.0,4.0,52,0.00,,,0.00,VWS V14.01,2013-01-24 22:57:00,
2013-01-24 18:02:00,18.1,2.6,30.59,NNW,328,0.0,2.0,50,0.00,,,0.00,VWS V14.01,2013-01-24 23:02:00,
2013-01-24 18:07:00,18.0,2.5,30.60,NNW,329,0.0,2.0,50,0.00,,,0.00,VWS V14.01,2013-01-24 23:07:00,
2013-01-24 18:13:00,18.0,2.1,30.60,NW,311,2.0,3.0,49,0.00,,,0.00,VWS V14.01,2013-01-24 23:13:00,
2013-01-24 18:18:00,18.0,2.1,30.60,NW,311,1.0,3.0,49,0.00,,,0.00,VWS V14.01,2013-01-24 23:18:00,
2013-01-24 18:23:00,18.0,1.6,30.60,NW,311,0.0,3.0,48,0.00,,,0.00,VWS V14.01,2013-01-24 23:23:00,
2013-01-24 18:28:00,17.9,1.5,30.61,NW,311,0.0,3.0,48,0.00,,,0.00,VWS V14.01,2013-01-24 23:28:00,
2013-01-24 18:33:00,17.8,1.5,30.61,NW,311,0.0,0.0,48,0.00,,,0.00,VWS V14.01,2013-01-24 23:33:00,
2013-01-24 18:38:00,17.7,1.4,30.61,NW,311,0.0,0.0,48,0.00,,,0.00,VWS V14.01,2013-01-24 23:38:00,
2013-01-24 18:43:00,17.5,1.6,30.61,NW,311,0.0,0.0,49,0.00,,,0.00,VWS V14.01,2013-01-24 23:43:00,
2013-01-24 18:48:00,17.3,1.4,30.61,NW,311,0.0,0.0,49,0.00,,,0.00,VWS V14.01,2013-01-24 23:48:00,
2013-01-24 18:53:00,17.1,2.1,30.61,NW,311,0.0,0.0,51,0.00,,,0.00,VWS V14.01,2013-01-24 23:53:00,
2013-01-24 18:58:00,16.7,2.1,30.61,NW,311,0.0,0.0,52,0.00,,,0.00,VWS V14.01,2013-01-24 23:58:00,
2013-01-24 19:03:00,16.4,1.9,30.61,NW,311,0.0,0.0,52,0.00,,,0.00,VWS V14.01,2013-01-25 00:03:00,
2013-01-24 19:09:00,16.4,1.5,30.61,NW,311,0.0,1.0,51,0.00,,,0.00,VWS V14.01,2013-01-25 00:09:00,
2013-01-24 19:14:00,16.4,1.0,30.61,NW,311,0.0,1.0,50,0.00,,,0.00,VWS V14.01,2013-01-25 00:14:00,
2013-01-24 19:19:00,16.4,1.0,30.61,NW,311,0.0,1.0,50,0.00,,,0.00,VWS V14.01,2013-01-25 00:19:00,
2013-01-24 19:23:00,16.5,0.7,30.62,NW,321,2.0,4.0,49,0.00,,,0.00,VWS V14.01,2013-01-25 00:23:00,
2013-01-24 19:29:00,16.6,0.8,30.61,NNW,333,2.0,4.0,49,0.00,,,0.00,VWS V14.01,2013-01-25 00:29:00,
2013-01-24 19:34:00,16.5,1.1,30.61,NNW,339,0.0,1.0,50,0.00,,,0.00,VWS V14.01,2013-01-25 00:34:00,
2013-01-24 19:39:00,16.4,1.0,30.61,NNW,339,0.0,1.0,50,0.00,,,0.00,VWS V14.01,2013-01-25 00:39:00,
2013-01-24 19:44:00,16.4,1.5,30.61,NNW,339,1.0,1.0,51,0.00,,,0.00,VWS V14.01,2013-01-25 00:44:00,
2013-01-24 19:49:00,16.3,1.4,30.61,NNW,339,0.0,2.0,51,0.00,,,0.00,VWS V14.01,2013-01-25 00:49:00,
2013-01-24 19:54:00,16.2,1.3,30.62,NNW,339,0.0,2.0,51,0.00,,,0.00,VWS V14.01,2013-01-25 00:54:00,
2013-01-24 19:59:00,16.1,1.6,30.62,NNW,339,0.0,2.0,52,0.00,,,0.00,VWS V14.01,2013-01-25 00:59:00,
2013-01-24 20:04:00,16.0,1.1,30.61,NNW,339,0.0,0.0,51,0.00,,,0.00,VWS V14.01,2013-01-25 01:04:00,
2013-01-24 20:09:00,15.9,1.0,30.62,NNW,339,0.0,1.0,51,0.00,,,0.00,VWS V14.01,2013-01-25 01:09:00,
2013-01-24 20:14:00,15.9,1.0,30.61,NNW,339,0.0,1.0,51,0.00,,,0.00,VWS V14.01,2013-01-25 01:14:00,
2013-01-24 20:19:00,15.7,0.8,30.61,NNW,339,0.0,1.0,51,0.00,,,0.00,VWS V14.01,2013-01-25 01:19:00,
2013-01-24 20:24:00,15.6,0.7,30.61,NNW,339,1.0,1.0,51,0.00,,,0.00,VWS V14.01,2013-01-25 01:24:00,
2013-01-24 20:29:00,15.4,0.9,30.62,NNW,339,0.0,1.0,52,0.00,,,0.00,VWS V14.01,2013-01-25 01:29:00,
2013-01-24 20:35:00,15.4,0.9,30.61,NNW,339,0.0,1.0,52,0.00,,,0.00,VWS V14.01,2013-01-25 01:35:00,
2013-01-24 20:40:00,15.3,0.8,30.61,NNW,339,0.0,1.0,52,0.00,,,0.00,VWS V14.01,2013-01-25 01:40:00,
2013-01-24 20:45:00,15.2,1.1,30.61,NNW,339,0.0,1.0,53,0.00,,,0.00,VWS V14.01,2013-01-25 01:45:00,
2013-01-24 20:50:00,15.2,1.1,30.61,NNW,339,0.0,1.0,53,0.00,,,0.00,VWS V14.01,2013-01-25 01:50:00,
2013-01-24 20:55:00,15.1,1.1,30.61,NNW,339,0.0,1.0,53,0.00,,,0.00,VWS V14.01,2013-01-25 01:55:00,
2013-01-24 21:00:00,15.0,1.0,30.61,NNW,339,0.0,0.0,53,0.00,,,0.00,VWS V14.01,2013-01-25 02:00:00,
2013-01-24 21:05:00,14.8,0.8,30.61,NNW,339,0.0,0.0,53,0.00,,,0.00,VWS V14.01,2013-01-25 02:05:00,
2013-01-24 21:10:00,14.6,0.6,30.60,NNW,339,0.0,0.0,53,0.00,,,0.00,VWS V14.01,2013-01-25 02:10:00,
2013-01-24 21:15:00,14.5,1.3,30.61,NNW,339,0.0,0.0,55,0.00,,,0.00,VWS V14.01,2013-01-25 02:15:00,
2013-01-24 21:20:00,14.0,0.8,30.61,NNW,339,0.0,0.0,55,0.00,,,0.00,VWS V14.01,2013-01-25 02:20:00,
2013-01-24 21:25:00,13.7,0.9,30.61,NNW,339,0.0,0.0,56,0.00,,,0.00,VWS V14.01,2013-01-25 02:25:00,
2013-01-24 21:30:00,13.4,0.6,30.61,NNW,339,0.0,0.0,56,0.00,,,0.00,VWS V14.01,2013-01-25 02:30:00,
2013-01-24 21:35:00,13.2,0.4,30.60,NNW,339,0.0,0.0,56,0.00,,,0.00,VWS V14.01,2013-01-25 02:35:00,
2013-01-24 21:40:00,13.1,0.7,30.60,NNW,339,0.0,0.0,57,0.00,,,0.00,VWS V14.01,2013-01-25 02:40:00,
2013-01-24 21:45:00,13.1,1.5,30.60,NNW,339,0.0,0.0,59,0.00,,,0.00,VWS V14.01,2013-01-25 02:45:00,
2013-01-24 21:51:00,13.2,1.6,30.60,NNW,339,0.0,0.0,59,0.00,,,0.00,VWS V14.01,2013-01-25 02:51:00,
2013-01-24 21:56:00,13.1,1.1,30.60,NNW,339,0.0,0.0,58,0.00,,,0.00,VWS V14.01,2013-01-25 02:56:00,
2013-01-24 22:01:00,13.1,1.5,30.60,NNW,339,0.0,0.0,59,0.00,,,0.00,VWS V14.01,2013-01-25 03:01:00,
2013-01-24 22:06:00,13.0,1.4,30.60,NNW,339,0.0,0.0,59,0.00,,,0.00,VWS V14.01,2013-01-25 03:06:00,
2013-01-24 22:11:00,12.8,1.5,30.61,NNW,339,0.0,0.0,60,0.00,,,0.00,VWS V14.01,2013-01-25 03:11:00,
2013-01-24 22:16:00,12.6,1.7,30.61,NNW,339,0.0,0.0,61,0.00,,,0.00,VWS V14.01,2013-01-25 03:16:00,
2013-01-24 22:21:00,12.5,1.6,30.60,NNW,339,0.0,0.0,61,0.00,,,0.00,VWS V14.01,2013-01-25 03:21:00,
2013-01-24 22:26:00,12.4,1.5,30.60,NNW,339,0.0,0.0,61,0.00,,,0.00,VWS V14.01,2013-01-25 03:26:00,
2013-01-24 22:31:00,12.3,1.8,30.60,NNW,339,0.0,0.0,62,0.00,,,0.00,VWS V14.01,2013-01-25 03:31:00,
2013-01-24 22:36:00,12.3,1.8,30.60,NNW,339,0.0,0.0,62,0.00,,,0.00,VWS V14.01,2013-01-25 03:36:00,
2013-01-24 22:41:00,12.2,1.7,30.60,NNW,339,0.0,0.0,62,0.00,,,0.00,VWS V14.01,2013-01-25 03:41:00,
2013-01-24 22:46:00,12.0,1.5,30.60,NNW,339,0.0,0.0,62,0.00,,,0.00,VWS V14.01,2013-01-25 03:46:00,
2013-01-24 22:51:00,11.9,1.7,30.61,NNW,339,0.0,0.0,63,0.00,,,0.00,VWS V14.01,2013-01-25 03:51:00,
2013-01-24 22:56:00,11.7,1.9,30.61,NNW,339,0.0,0.0,64,0.00,,,0.00,VWS V14.01,2013-01-25 03:56:00,
2013-01-24 23:01:00,11.5,1.7,30.61,NNW,339,0.0,0.0,64,0.00,,,0.00,VWS V14.01,2013-01-25 04:01:00,
2013-01-24 23:06:00,11.4,1.9,30.60,NNW,339,0.0,0.0,65,0.00,,,0.00,VWS V14.01,2013-01-25 04:06:00,
2013-01-24 23:11:00,11.2,2.1,30.60,NNW,339,0.0,0.0,66,0.00,,,0.00,VWS V14.01,2013-01-25 04:11:00,
2013-01-24 23:16:00,11.0,2.2,30.60,NNW,339,0.0,0.0,67,0.00,,,0.00,VWS V14.01,2013-01-25 04:16:00,
2013-01-24 23:21:00,10.9,2.4,30.60,NNW,339,0.0,0.0,68,0.00,,,0.00,VWS V14.01,2013-01-25 04:21:00,
2013-01-24 23:27:00,10.7,2.5,30.60,NNW,339,0.0,0.0,69,0.00,,,0.00,VWS V14.01,2013-01-25 04:27:00,
2013-01-24 23:32:00,10.8,2.6,30.60,NNW,339,0.0,0.0,69,0.00,,,0.00,VWS V14.01,2013-01-25 04:32:00,
2013-01-24 23:37:00,10.9,2.7,30.60,NNW,339,0.0,0.0,69,0.00,,,0.00,VWS V14.01,2013-01-25 04:37:00,
2013-01-24 23:42:00,11.1,2.9,30.60,NNW,339,0.0,0.0,69,0.00,,,0.00,VWS V14.01,2013-01-25 04:42:00,
2013-01-24 23:47:00,11.2,3.3,30.61,NNW,339,0.0,0.0,70,0.00,,,0.00,VWS V14.01,2013-01-25 04:47:00,
2013-01-24 23:52:00,11.4,3.5,30.62,NNW,339,0.0,0.0,70,0.00,,,0.00,VWS V14.01,2013-01-25 04:52:00,
2013-01-24 23:57:00,11.5,3.6,30.61,NNW,339,0.0,0.0,70,0.00,,,0.00,VWS V14.01,2013-01-25 04:57:00,